FW7501 Weather Reports


time (UTC)temp
F
wind
direction
speed
knots
gust
knots
rain 1hr
in
rain 24hr
in
rain mn
in
humidity
%
barometer
mb
20260506093013 51 351 11.3 16.5 0.01 0.01 0.01 83 1016.8
20260506092507 51 345 9.6 15.6 0.01 0.01 0.01 83 1016.9
20260506092004 52 342 9.6 16.5 0.01 0.01 0.01 82 1016.8
20260506091517 52 340 10.4 17.4 0.00 0.00 0.00 82 1016.9
20260506091004 52 330 11.3 19.1 0.00 0.00 0.00 81 1016.9
20260506090501 52 324 13.0 19.1 0.00 0.00 0.00 80 1016.9
20260506090015 52 343 12.2 20.9 0.00 0.00 0.00 80 1016.8
20260506085505 53 331 11.3 20.9 0.00 0.00 0.00 78 1016.6
20260506085008 53 1 12.2 20.9 0.00 0.00 0.00 76 1016.5
20260506084511 53 357 13.9 20.9 0.00 0.00 0.00 75 1016.3
20260506084005 53 22 13.9 20.0 0.00 0.00 0.00 75 1016.1
20260506083507 53 331 9.6 21.7 0.00 0.00 0.00 74 1016.1
20260506083009 53 12 12.2 21.7 0.00 0.00 0.00 74 1016.1
20260506082506 53 324 9.6 17.4 0.00 0.00 0.00 74 1016.1
20260506082012 53 13 8.7 18.2 0.00 0.00 0.00 74 1016.1
20260506081509 53 25 9.6 18.2 0.00 0.00 0.00 74 1016.0
20260506081011 53 356 7.8 20.0 0.00 0.00 0.00 74 1016.0
20260506080507 53 357 8.7 20.0 0.00 0.00 0.00 74 1016.0
20260506073009 54 355 7.0 14.8 0.00 0.00 0.00 74 1015.9
20260506072003 54 345 7.8 14.8 0.00 0.00 0.00 73 1016.0
20260506071519 54 311 7.0 15.6 0.00 0.00 0.00 73 1016.1
20260506071006 55 343 9.6 15.6 0.00 0.00 0.00 72 1016.1
20260506070507 55 359 7.0 18.2 0.00 0.00 0.00 72 1016.1
20260506062510 54 6 5.2 16.5 0.00 0.00 0.00 72 1016.7
20260506062011 55 10 7.8 16.5 0.00 0.00 0.00 71 1016.7
20260506061007 56 360 8.7 18.2 0.00 0.00 0.00 68 1016.7
20260506060504 56 333 10.4 18.2 0.00 0.00 0.00 68 1016.8
20260506051003 56 10 8.7 16.5 0.00 0.00 0.00 69 1017.9
20260506050503 56 360 8.7 20.9 0.00 0.00 0.00 66 1017.8
20260506045005 57 337 12.2 20.0 0.00 0.00 0.00 63 1017.9
20260506044519 58 349 12.2 20.0 0.00 0.00 0.00 63 1017.8
20260506044006 58 324 13.9 19.1 0.00 0.00 0.00 62 1017.8
20260506043503 58 327 13.0 19.1 0.00 0.00 0.00 61 1017.9
20260506043004 58 343 9.6 20.9 0.00 0.00 0.00 61 1018.0
20260506042504 58 333 14.8 20.0 0.00 0.00 0.00 62 1017.9
20260506042004 58 309 10.4 20.9 0.00 0.00 0.00 62 1018.0
20260506041505 58 320 12.2 20.9 0.00 0.00 0.00 63 1018.1
20260506041004 57 352 12.2 20.0 0.00 0.00 0.00 64 1018.0
20260506040504 58 332 12.2 18.2 0.00 0.00 0.00 63 1018.1
20260506040008 57 337 12.2 18.2 0.00 0.00 0.00 63 1018.1
20260506035503 57 311 12.2 20.9 0.00 0.00 0.00 62 1018.1
20260506035004 57 327 12.2 20.9 0.00 0.00 0.00 63 1018.2
20260506034506 57 328 13.0 20.0 0.00 0.00 0.00 63 1018.3
20260506033505 56 340 10.4 16.5 0.00 0.00 0.00 64 1018.5
20260506033006 57 324 8.7 13.0 0.00 0.00 0.00 64 1018.6
20260506032506 57 328 7.8 16.5 0.00 0.00 0.00 65 1018.8
20260506032011 57 303 8.7 16.5 0.00 0.00 0.00 65 1019.0
20260506031505 56 316 7.8 15.6 0.00 0.00 0.00 66 1019.1
20260506031005 56 318 9.6 16.5 0.00 0.00 0.00 65 1019.2
20260506030503 55 314 10.4 16.5 0.00 0.00 0.00 64 1019.2
20260506030006 55 314 10.4 13.9 0.00 0.00 0.00 65 1019.2
20260506025506 55 298 10.4 15.6 0.00 0.00 0.00 65 1019.1
20260506025004 56 297 7.8 15.6 0.00 0.00 0.00 66 1019.2
20260506024510 56 315 8.7 15.6 0.00 0.00 0.00 65 1019.3
20260506024010 56 318 7.8 15.6 0.00 0.00 0.00 65 1019.4
20260506023014 56 327 8.7 14.8 0.00 0.00 0.00 65 1019.6
20260506022505 56 308 9.6 14.8 0.00 0.00 0.00 65 1019.6
20260506022006 56 301 12.2 14.8 0.00 0.00 0.00 64 1019.8
20260506021511 56 314 9.6 14.8 0.00 0.00 0.00 66 1019.8
20260506021004 55 312 7.8 13.0 0.00 0.00 0.00 67 1019.9
20260506020507 55 311 7.8 11.3 0.00 0.00 0.00 68 1020.2
20260506015505 55 316 8.7 11.3 0.00 0.00 0.00 71 1020.3
20260506015005 55 325 7.0 12.2 0.00 0.00 0.00 72 1020.2
20260506014508 54 326 7.0 13.9 0.00 0.00 0.00 71 1020.2
20260506014004 54 339 7.8 13.9 0.00 0.00 0.00 71 1020.4
20260506013504 54 334 7.0 13.9 0.00 0.00 0.00 71 1020.4
20260506012504 54 349 6.1 13.9 0.00 0.00 0.00 71 1020.5
20260506012009 54 5 7.8 13.9 0.00 0.00 0.00 70 1020.6
20260506011520 54 345 7.8 13.9 0.00 0.00 0.00 70 1020.7
20260506011010 54 13 7.8 13.9 0.00 0.00 0.00 70 1020.7
20260506010022 54 326 7.8 14.8 0.00 0.00 0.00 70 1020.9
20260506005511 54 20 7.0 13.0 0.00 0.00 0.00 68 1020.9
20260506005003 55 355 7.8 13.0 0.00 0.00 0.00 69 1020.8
20260506004524 55 345 6.1 13.0 0.00 0.00 0.00 69 1020.9
20260506004005 55 335 7.8 13.0 0.00 0.00 0.00 68 1020.9
20260506003504 55 33 5.2 12.2 0.00 0.00 0.00 68 1021.0
20260506003009 55 359 7.0 12.2 0.00 0.00 0.00 68 1021.1
20260506002507 55 355 4.3 10.4 0.00 0.00 0.00 69 1021.2
20260506002006 55 331 5.2 12.2 0.00 0.00 0.00 68 1021.2
20260506001511 54 341 6.1 12.2 0.00 0.00 0.00 69 1021.2
20260506000507 54 337 6.1 12.2 0.00 0.00 0.00 68 1021.3
20260506000010 54 11 7.0 12.2 0.00 0.00 0.00 68 1021.3
20260505235511 54 345 6.1 11.3 0.00 0.00 0.00 69 1021.3
20260505235008 54 1 5.2 11.3 0.00 0.00 0.00 70 1021.4
20260505234512 53 16 7.0 11.3 0.00 0.00 0.00 70 1021.3
20260505234008 53 2 5.2 11.3 0.00 0.00 0.00 70 1021.4
20260505233027 53 340 5.2 9.6 0.00 0.00 0.00 70 1021.5
20260505232004 53 343 7.0 12.2 0.00 0.00 0.00 71 1021.6
20260505231513 53 15 6.1 9.6 0.00 0.00 0.00 71 1021.6
20260505231006 53 8 5.2 9.6 0.00 0.00 0.00 71 1021.6
20260505230506 53 349 5.2 9.6 0.00 0.00 0.00 71 1021.5
20260505230029 53 341 5.2 8.7 0.00 0.00 0.00 71 1021.7
20260505225508 52 2 5.2 8.7 0.00 0.00 0.00 71 1021.7
20260505225012 52 341 6.1 8.7 0.00 0.00 0.00 71 1021.6
20260505224518 52 337 4.3 8.7 0.00 0.00 0.00 71 1021.7
20260505224008 52 349 5.2 8.7 0.00 0.00 0.00 71 1021.6
20260505223511 52 330 5.2 8.7 0.00 0.00 0.00 71 1021.6
20260505223021 52 339 3.5 7.0 0.00 0.00 0.00 72 1021.5
20260505222511 52 337 4.3 7.0 0.00 0.00 0.00 71 1021.5
20260505222015 52 4 3.5 7.8 0.00 0.00 0.00 71 1021.5
20260505221519 52 16 3.5 7.8 0.00 0.00 0.00 71 1021.5
20260505221012 52 344 3.5 7.0 0.00 0.00 0.00 71 1021.5
20260505220506 52 8 3.5 7.0 0.00 0.00 0.00 71 1021.5
20260505220013 52 10 2.6 7.8 0.00 0.00 0.00 71 1021.6
20260505215508 51 23 4.3 7.8 0.00 0.00 0.00 71 1021.6
20260505215007 51 339 3.5 7.8 0.00 0.00 0.00 71 1021.6
20260505214504 51 330 4.3 7.8 0.00 0.00 0.00 72 1021.6
20260505214003 51 14 1.7 5.2 0.00 0.00 0.00 72 1021.7
20260505213503 51 358 0.9 6.1 0.00 0.00 0.00 72 1021.7
20260505213004 51 16 1.7 6.1 0.00 0.00 0.00 72 1021.7
20260505212503 51 14 2.6 6.1 0.00 0.00 0.00 72 1021.7
20260505212003 51 358 0.0 6.1 0.00 0.00 0.00 72 1021.5
20260505211504 51 341 2.6 6.1 0.00 0.00 0.00 72 1021.7
20260505211003 51 4 1.7 4.3 0.00 0.00 0.00 73 1021.8
20260505210507 51 14 1.7 6.1 0.00 0.00 0.00 73 1021.8
20260505210004 51 360 2.6 6.1 0.00 0.00 0.00 73 1021.6
20260505205513 51 13 1.7 5.2 0.00 0.00 0.00 73 1021.6
20260505205006 51 358 3.5 5.2 0.00 0.00 0.00 73 1021.7
20260505204506 51 337 3.5 5.2 0.00 0.00 0.00 73 1021.8
20260505204006 51 359 2.6 6.1 0.00 0.00 0.00 73 1021.7
20260505203503 51 10 2.6 6.1 0.00 0.00 0.00 73 1021.7
20260505203013 51 4 2.6 5.2 0.00 0.00 0.00 73 1021.8
20260505202503 51 4 1.7 5.2 0.00 0.00 0.00 73 1021.7
20260505202004 51 8 1.7 4.3 0.00 0.00 0.00 73 1021.7
20260505201506 51 10 1.7 6.1 0.00 0.00 0.00 73 1021.7
20260505201004 51 339 2.6 6.1 0.00 0.00 0.00 74 1021.5
20260505200504 51 341 1.7 4.3 0.00 0.00 0.00 74 1021.5
20260505200009 51 349 1.7 5.2 0.00 0.00 0.00 73 1021.5
20260505195504 51 348 1.7 5.2 0.00 0.00 0.00 73 1021.5
20260505195007 51 10 2.6 5.2 0.00 0.00 0.00 73 1021.4
20260505194514 51 15 0.9 5.2 0.00 0.00 0.00 74 1021.4
20260505194004 51 14 0.9 3.5 0.00 0.00 0.00 74 1021.4
20260505193512 51 17 0.0 5.2 0.00 0.00 0.00 74 1021.4
20260505193011 51 16 2.6 5.2 0.00 0.00 0.00 74 1021.4
20260505192503 51 4 0.9 3.5 0.00 0.00 0.00 74 1021.4
20260505192008 51 4 1.7 3.5 0.00 0.00 0.00 74 1021.5
20260505191513 51 360 0.9 3.5 0.00 0.00 0.00 73 1021.5
20260505191009 51 2 0.9 3.5 0.00 0.00 0.00 74 1021.6
20260505190504 51 352 0.0 2.6 0.00 0.00 0.00 73 1021.5
20260505190005 51 353 0.9 2.6 0.00 0.00 0.00 73 1021.6
20260505185504 52 353 0.9 2.6 0.00 0.00 0.00 72 1021.6
20260505185005 52 353 0.9 2.6 0.00 0.00 0.00 72 1021.5
20260505184006 52 352 0.9 6.1 0.00 0.00 0.00 71 1021.5
20260505183507 52 4 0.9 6.1 0.00 0.00 0.00 72 1021.5
20260505183014 52 333 0.9 3.5 0.00 0.00 0.00 72 1021.5
20260505182504 52 21 0.0 2.6 0.00 0.00 0.00 72 1021.5
20260505182006 52 14 0.9 2.6 0.00 0.00 0.00 72 1021.6
20260505181518 52 360 0.0 2.6 0.00 0.00 0.00 72 1021.6
20260505180510 52 360 0.9 3.5 0.00 0.00 0.00 72 1021.6
20260505180019 52 17 0.0 3.5 0.00 0.00 0.00 72 1021.6
20260505175504 52 14 0.0 2.6 0.00 0.00 0.00 72 1021.6
20260505175004 52 358 0.0 0.9 0.00 0.00 0.00 72 1021.6
20260505174505 52 354 0.0 4.3 0.00 0.00 0.00 71 1021.7
20260505173505 52 354 0.9 2.6 0.00 0.00 0.00 71 1021.7
20260505173010 52 353 0.9 2.6 0.00 0.00 0.00 72 1021.8
20260505172507 52 353 0.9 4.3 0.00 0.00 0.00 72 1021.8
20260505172008 52 351 0.9 4.3 0.00 0.00 0.00 72 1021.9
20260505171008 51 359 0.9 4.3 0.00 0.00 0.00 73 1021.9
20260505170509 51 339 0.9 3.5 0.00 0.00 0.00 73 1021.9
20260505170006 52 335 0.0 2.6 0.00 0.00 0.00 72 1022.0
20260505165510 52 314 0.9 3.5 0.00 0.00 0.00 72 1022.0
20260505165005 52 319 1.7 6.1 0.00 0.00 0.00 72 1022.0
20260505164524 52 334 1.7 6.1 0.00 0.00 0.00 71 1022.1
20260505164007 52 3 2.6 6.1 0.00 0.00 0.00 72 1022.1
20260505163503 52 345 2.6 6.1 0.00 0.00 0.00 71 1022.1
20260505162506 51 2 3.5 7.0 0.00 0.00 0.00 73 1022.2
20260505162007 51 8 1.7 4.3 0.00 0.00 0.00 73 1022.3
20260505161513 51 8 1.7 4.3 0.00 0.00 0.00 72 1022.4
20260505161008 51 4 1.7 4.3 0.00 0.00 0.00 72 1022.3
20260505160511 51 17 1.7 5.2 0.00 0.00 0.00 72 1022.4
20260505153028 51 2 1.7 4.3 0.00 0.00 0.00 73 1022.7
20260505152511 51 22 2.6 4.3 0.00 0.00 0.00 73 1022.7
20260505152012 51 335 0.0 5.2 0.00 0.00 0.00 73 1022.8
20260505151006 51 358 3.5 6.1 0.00 0.00 0.00 72 1022.8
20260505150509 52 7 1.7 5.2 0.00 0.00 0.00 72 1022.8
20260505140511 52 20 0.0 2.6 0.00 0.00 0.00 69 1022.8
20260505125008 53 17 1.7 3.5 0.00 0.00 0.00 69 1023.2
20260505124502 53 35 0.0 2.6 0.00 0.00 0.00 69 1023.2
20260505124006 53 42 0.9 1.7 0.00 0.00 0.00 69 1023.3
20260505123506 53 42 0.0 2.6 0.00 0.00 0.00 69 1023.4
20260505123003 53 42 0.0 2.6 0.00 0.00 0.00 69 1023.5
20260505122504 53 24 0.9 2.6 0.00 0.00 0.00 69 1023.6
20260505122004 53 25 0.0 2.6 0.00 0.00 0.00 69 1023.6
20260505121506 53 41 0.0 3.5 0.00 0.00 0.00 70 1023.6
20260505121005 53 41 0.0 3.5 0.00 0.00 0.00 70 1023.6
20260505120508 53 41 0.9 2.6 0.00 0.00 0.00 70 1023.7
20260505115502 53 50 0.0 2.6 0.00 0.00 0.00 70 1023.7
20260505114505 53 27 0.0 0.0 0.00 0.00 0.00 70 1023.7
20260505113504 53 27 0.0 2.6 0.00 0.00 0.00 70 1023.8
20260505113004 53 27 0.0 2.6 0.00 0.00 0.00 70 1023.7
20260505112507 53 27 0.0 0.9 0.00 0.00 0.00 70 1023.7
20260505112003 53 27 0.0 0.0 0.00 0.00 0.00 70 1023.6
20260505111505 53 27 0.0 0.0 0.00 0.00 0.00 70 1023.6
20260505111004 53 27 0.0 0.0 0.00 0.00 0.00 70 1023.5
20260505110504 53 27 0.0 2.6 0.00 0.00 0.00 70 1023.6
20260505102007 53 14 0.0 0.0 0.00 0.00 0.00 70 1023.7
20260505101507 53 14 0.0 0.0 0.00 0.00 0.00 70 1023.7
20260505101002 53 14 0.0 0.0 0.00 0.00 0.00 70 1023.6
20260505100503 53 14 0.0 0.0 0.00 0.00 0.00 70 1023.6
20260505100005 53 212 0.0 0.0 0.00 0.00 0.00 70 1023.6
20260505095507 53 212 0.0 0.0 0.00 0.00 0.00 70 1023.6
20260505095007 53 212 0.0 0.0 0.00 0.00 0.00 69 1023.6
20260505094505 53 212 0.0 0.0 0.00 0.00 0.00 69 1023.6
20260505094004 53 212 0.0 0.0 0.00 0.00 0.00 69 1023.6
20260505093505 53 212 0.0 0.0 0.00 0.00 0.00 70 1023.6